Showing default

METEOR 3-5, 21655

Orbit data source: Space-Track

METEOR 3-5, 21655 is a payload satellite owned by Rosgidromet (CIS) in LEO that was launched on Thu, 15 Aug 1991 UTC via a TSIKLON-3 launch vehicle from the Plesetsk Missile And Space Complex (PKMTR). Payload-class satellites include a variety of spacecraft equipped with specific instruments for various scientific and technological missions. These include communications satellites like Starlink; space stations such as the ISS; scientific satellites like the Hubble; Earth observation satellites from companies like Planet Labs, Umbra, and HawkEye 360; GPS; miniature CubeSats for education and research; and military/defense satellites.

Loading next visibility...
Identifier
21655, 1991-056A
Orbit
LEO
Country
Flag of CISCIS
Related business
Manufacturer
VNIIEM
Mission
Civil Weather
Bus & Motor
METEOR-3, Unknown motor
Mass
2,150 kg wet, 2,150 kg dry
Launch date (UTC)
1991-08-15 (35 years ago)
Launch vehicle
TSIKLON-3
Launch site
Plesetsk Missile And Space Complex (PKMTR)
Object type
Payload
Rocket body
Debris
Shape & HBR
Cyl + 2 Pan, 6.3 m
Radar Cross Section
21.153 m², Large (>1 m²)

Expand to show TLE details & history
Last TLE update: 13 hours ago

TLE from 13 hours ago
0 METEOR 3-5
1 21655U 91056A   26127.17645406  .00000157  00000-0  37513-3 0  9996
2 21655  82.5564 168.3482 0012224 236.4444 123.5512 13.17157665669171
Epoch: 2026-05-07T04:14Z
TLE epoch observation values (Epoch: 2026-05-07T04:14:05.630Z)
Latitude
-0.00001°
Longitude
-120.20161°
Altitude
1,203.529 km
Speed
7.25 km/s
True Right ascension
11h 13m 23s
True Declination
0° 00' 00"
Sunlit
Object was in partial shadow at epoch
Visualization orbit readout
Latitude
Unknown
Longitude
Unknown
Altitude
Unknown
Speed
Unknown
Apparent Right ascension
Unknown
Apparent Declination
Unknown
Sunlit
N/A
Visualization observer readout
Local Sidereal Time
01:05:54
Azimuth
Unknown
Elevation
Unknown
Doppler factor
Unknown
Orbital elements
Apogee altitude
1,202.095 km
Perigee altitude
1,183.586 km
Semi-major axis
7,570.977 km
Eccentricity
0.00122
Inclination
82.5564°
RAAN
168.3482°
Arg. of periapsis
236.4444°
True anomaly
123.66784°
Mean anomaly
123.5512°
Eccentric anomaly
123.60953°
Mean motion
3.2947 °/min
Orbital period
109.27 mins
BSTAR
0.00037513
Loading maneuver chart data...
Computing Atmospheric mass density...
Loading historical data...
Loading historical data...
Loading historical data...
Loading historical data...
Loading historical data...
Loading historical data...
Loading historical data...

Documentation

Showing up to 5 results
|